Content
SEND FEEDBACK

Daily
Averages
Monthly
Summary
United States of America

ST. LOUIS, MISSOURI


Home > North America > United States > Missouri
Elevation: 163 meters     Latitude: 38 45N     Longitude: 090 22W

WEATHER
 
SELECT A DAY
Number of Records: 199,614;   Date Range: 1/1/95 - 10/19/14
 
SHARE

PRINT THIS DATA

[ ← Previous Day ]
WEATHER ALMANAC - 24 MARCH, 2013
[ Next Day → ]
[ °F ]   °C
Weather ElementAverageHighLow
Temperature0.5 °C5 °C (12:54 am)0 °C (10:32 am)
Dewpoint-1.2 °C1.7 °C (12:54 am)-2.2 °C (7:54 pm)
Humidity88.7 %93 % (2:32 am)79 % (12:54 am)
Barometer1006.1 hPa1011.9 hPa (12:54 am)1002 hPa (1:01 pm)
Wind Speed22.5 km/h35.2 km/h (5:38 pm)
Wind Gust51.8 km/h (7:35 pm)
Weather ElementAverage
Visibility2.3 km
Wind DirectionWSW (237.1 °)

Weather ElementTotal
Precipitation25.91 mm
Heating Degree Days15.8 (Base 18.3)
Averaged from 59 records on 24 March, 2013
WEATHER CONDITIONS BREAKOUT
WIND DIRECTION BREAKOUT
WEATHER BY HOUR - 24 MARCH, 2013
[ °F ]   °C
Local TimeTemperatureDewpointHumidityBarometerVisibilityWind DirectionWind SpeedGust SpeedPrecipitationEventsConditions
12:54 AM5 °C1.7 °C79 %1011.9 hPa11.3 kmNNE (30°)11.1 km/h0.25 mmRainLight Rain
1:54 AM3.3 °C1.1 °C86 %1011.2 hPa6.4 kmNE (50°)29.6 km/h40.7 km/h1.02 mmRainLight Rain
2:12 AM3 °C1 °C87 %1009.5 hPa6.4 kmENE (60°)27.8 km/h38.9 km/hRainLight Rain
2:32 AM2 °C1 °C93 %1009.1 hPa8 kmNE (40°)20.4 km/h0.25 mmRainLight Rain
2:54 AM2.2 °C0.6 °C89 %1009.1 hPa9.7 kmNE (50°)20.4 km/h0.51 mmOvercast
3:54 AM1.7 °C-0.6 °C85 %1009.5 hPa12.9 kmNE (50°)24.1 km/hOvercast
4:54 AM1.1 °C0 °C92 %1007.5 hPa4.8 kmNE (50°)16.7 km/h31.5 km/h0 mmOvercast
5:39 AM1 °C-1 °C87 %1006.1 hPa4 kmENE (60°)24.1 km/h0 mmSnowLight Snow
5:46 AM1 °C-1 °C87 %1006.1 hPa4.8 kmENE (60°)22.2 km/h0 mmSnowLight Snow
5:54 AM0.6 °C-0.6 °C92 %1006.8 hPa6.4 kmENE (60°)25.9 km/h0 mmOvercast
6:49 AM1 °C-1 °C87 %1005.1 hPa3.2 kmENE (60°)20.4 km/h0 mmSnowLight Snow
6:54 AM0.6 °C-1.1 °C89 %1005.1 hPa3.2 kmENE (60°)22.2 km/h0 mmSnowLight Snow
7:12 AM1 °C-1 °C87 %1004.1 hPa4.8 kmENE (70°)24.1 km/h0.25 mmSnowLight Snow
7:46 AM1 °C-1 °C87 %1003 hPa2.9 kmNE (50°)22.2 km/h0.51 mmSnowLight Snow
7:54 AM0.6 °C-0.6 °C92 %1003.7 hPa2.4 kmNE (40°)18.5 km/h0.51 mmSnowLight Snow
8:54 AM0.6 °C-0.6 °C92 %1004.4 hPa0.8 kmNNW (340°)13 km/h1.52 mmFog-SnowSnow
9:00 AM1 °C-1 °C87 %1004.4 hPa0.3 kmNW (320°)14.8 km/h0.51 mmFog-SnowSnow
9:24 AM1 °C-1 °C87 %1004.1 hPa0.3 kmNorth (360°)13 km/h1.78 mmFog-Snow-ThunderstormThunderstorms and Snow
9:54 AM0.6 °C-0.6 °C92 %1004.4 hPa0.3 kmNorth (350°)13 km/h2.79 mmFog-SnowSnow
10:32 AM0 °C-1 °C93 %1003.4 hPa0.3 kmNorth (10°)18.5 km/h1.52 mmFog-SnowHeavy Snow
10:52 AM0 °C-1 °C93 %1003 hPa0.3 kmNorth (360°)16.7 km/h2.29 mmFog-SnowSnow
10:54 AM0 °C-1.1 °C92 %1003.4 hPa0.3 kmNorth (360°)18.5 km/h2.29 mmFog-SnowSnow
11:26 AM0 °C-1 °C93 %1002.7 hPa0.8 kmNorth (10°)11.1 km/h0.51 mmFog-SnowSnow
11:40 AM0 °C-1 °C93 %1002.4 hPa0.3 kmNorth (360°)14.8 km/h0.76 mmFog-SnowSnow
11:54 AM0 °C-1.1 °C92 %1003 hPa0.3 kmNorth (360°)11.1 km/h25.9 km/h1.02 mmFog-SnowHeavy Snow
12:01 PM0 °C-1 °C93 %1002.4 hPa0.3 kmNorth (10°)14.8 km/h0.25 mmFog-SnowSnow
12:09 PM0 °C-1 °C93 %1002.4 hPa0.3 kmNorth (360°)9.3 km/h0.51 mmFog-SnowSnow
12:24 PM0 °C-2 °C87 %1002.4 hPa0.8 kmNorth (350°)13 km/h0.76 mmFog-SnowSnow
12:54 PM0 °C-1.1 °C92 %1003 hPa0.8 kmNorth (360°)11.1 km/h1.27 mmFog-SnowSnow
1:01 PM0 °C-1 °C93 %1002 hPa0.3 kmNorth (360°)13 km/h0 mmFog-SnowSnow
1:18 PM0 °C-1 °C93 %1002 hPa0.8 kmNNW (340°)14.8 km/h0.25 mmFog-SnowSnow
1:54 PM0 °C-1.1 °C92 %1002.7 hPa0.3 kmNNW (340°)27.8 km/h37 km/h0.25 mmFog-SnowSnow
2:04 PM0 °C-1 °C93 %1002 hPa0.3 kmNNW (330°)22.2 km/h0 mmFog-SnowSnow
2:54 PM0 °C-1.7 °C88 %1003.4 hPa0.3 kmNNW (330°)20.4 km/h0.51 mmFog-SnowHeavy Snow
3:13 PM0 °C-2 °C87 %1003 hPa0.3 kmNNW (330°)27.8 km/h0 mmFog-SnowHeavy Snow
3:44 PM0 °C-1 °C93 %1003.4 hPa0.3 kmNNW (330°)25.9 km/h0.25 mmFog-SnowSnow
3:54 PM0 °C-1.7 °C88 %1004.1 hPa0.3 kmNW (320°)27.8 km/h37 km/h0.25 mmFog-SnowSnow
4:26 PM0 °C-2 °C87 %1004.1 hPa0.8 kmNW (320°)27.8 km/h44.4 km/h0.25 mmFog-SnowSnow
4:54 PM0 °C-1.7 °C88 %1005.4 hPa0.8 kmNW (310°)33.3 km/h44.4 km/h0.25 mmFog-SnowSnow
5:23 PM0 °C-2 °C87 %1005.4 hPa0.8 kmWNW (300°)29.6 km/h42.6 km/h0.25 mmFog-SnowSnow
5:38 PM0 °C-2 °C87 %1005.4 hPa0.8 kmWNW (300°)35.2 km/h48.1 km/h0.25 mmFog-SnowSnow
5:54 PM0 °C-1.7 °C88 %1006.8 hPa0.8 kmWNW (300°)31.5 km/h40.7 km/h0.25 mmFog-SnowSnow
6:02 PM0 °C-2 °C87 %1006.1 hPa0.8 kmWNW (300°)29.6 km/h40.7 km/h0 mmFog-SnowSnow
6:54 PM0 °C-1.7 °C88 %1007.8 hPa0.8 kmWNW (300°)29.6 km/h38.9 km/h0.25 mmFog-SnowLight Snow
7:27 PM0 °C-2 °C87 %1007.5 hPa1.6 kmWNW (300°)29.6 km/h42.6 km/h0 mmSnowLight Snow
7:35 PM0 °C-2 °C87 %1007.5 hPa1.9 kmWNW (300°)31.5 km/h51.8 km/h0.25 mmSnowLight Snow
7:44 PM0 °C-2 °C87 %1007.8 hPa1.9 kmWNW (300°)31.5 km/h46.3 km/h0.25 mmSnowLight Snow
7:54 PM0 °C-2.2 °C85 %1008.8 hPa1.9 kmWNW (300°)27.8 km/h40.7 km/h0.25 mmSnowLight Snow
8:00 PM0 °C-2 °C87 %1008.1 hPa2.4 kmWNW (300°)29.6 km/h0 mmSnowLight Snow
8:52 PM0 °C-2 °C87 %1008.8 hPa2.4 kmWNW (300°)27.8 km/h42.6 km/h0 mmSnowLight Snow
8:54 PM0 °C-2.2 °C85 %1009.8 hPa2.4 kmWNW (300°)27.8 km/h42.6 km/h0 mmSnowLight Snow
9:12 PM0 °C-2 °C87 %1009.1 hPa1.9 kmWNW (300°)25.9 km/h44.4 km/h0 mmSnowLight Snow
9:54 PM0 °C-2.2 °C85 %1010.5 hPa2.4 kmWNW (300°)25.9 km/h0 mmSnowLight Snow
10:22 PM0 °C-2 °C87 %1009.8 hPa1.9 kmWNW (290°)24.1 km/h40.7 km/h0.25 mmSnowLight Snow
10:49 PM0 °C-2 °C87 %1010.2 hPa1.9 kmWNW (300°)27.8 km/h37 km/h0.25 mmSnowLight Snow
10:54 PM0 °C-1.7 °C88 %1011.2 hPa1.9 kmWNW (300°)20.4 km/h37 km/h0.25 mmSnowLight Snow
11:03 PM0 °C-2 °C87 %1010.5 hPa1.9 kmWNW (300°)29.6 km/h38.9 km/h0 mmSnowLight Snow
11:14 PM0 °C-2 °C87 %1010.5 hPa1.9 kmWNW (290°)22.2 km/h0 mmSnowLight Snow
11:54 PM0 °C-2.2 °C85 %1011.5 hPa1.9 kmWNW (300°)24.1 km/h0.25 mmSnowLight Snow
Hourly data recorded from KSUS, located 0 kilometers away from St. Louis, Missouri







STORIES FROM OUR PARTNERS